Hickory, NC

2:56 PM EDT on May 27, 2018 (GMT -0400)
Hickory Regional

Weather History for KHKY - November, 2013

Change the Weather History Date:

Friday, November 1, 2013

  Actual Average Record
Temperature  
Mean Temperature 62 °F -  
Max Temperature 69 °F 66 °F 83 °F (1950)
Min Temperature 57 °F 46 °F 29 °F (1954)
Degree Days  
Heating Degree Days 2    
Growing Degree Days 12 (Base 50)    
Moisture  
Dew Point 59 °F    
Average Humidity 84    
Maximum Humidity 100    
Minimum Humidity 68    
Precipitation  
Precipitation 0.18 in - - ()
Sea Level Pressure  
Sea Level Pressure 29.74 in    
Wind  
Wind Speed 9 mph (SSW)    
Max Wind Speed 16 mph    
Max Gust Speed 32 mph    
Visibility 8 miles    
Events Fog , Rain    
Averages and records for this station are not official NWS values.
T = Trace of Precipitation, MM = Missing Value Source: NWS Daily Summary

Daily Weather History Graph

Daily Weather History Graph

Search for Another Location

Airport or City:

Astronomy

Nov. 01, 2013 Rise Set
Actual Time 7:47 AM EDT 6:29 PM EDT
Civil Twilight 7:21 AM EDT 6:56 PM EDT
Nautical Twilight 6:51 AM EDT 7:26 PM EDT
Astronomical Twilight 6:21 AM EDT 7:56 PM EDT
Moon 5:42 AM EDT (11/1) 5:19 PM EDT (11/1)
Length of Visible Light 11h 34m
Length of Day
10h 41m
Waning Crescent, 4% of the Moon is Illuminated
Nov 1
Waning Crescent
Nov 3
New
Nov 10
First Quarter
Nov 17
Full
Nov 25
Last Quarter

Hourly Weather History & Observations

Time (EDT) Temp. Dew Point Humidity Pressure Visibility Wind Dir Wind Speed Gust Speed Precip Events Conditions
12:53 AM 66.9 °F 62.1 °F 84% 29.81 in 10.0 mi South 12.7 mph 23.0 mph N/A   Scattered Clouds
1:13 AM 66.2 °F 62.6 °F 88% 29.82 in 10.0 mi South 16.1 mph 24.2 mph N/A   Mostly Cloudy
1:33 AM 68.0 °F 62.6 °F 83% 29.80 in 10.0 mi SSW 10.4 mph 21.9 mph N/A   Mostly Cloudy
1:53 AM 68.0 °F 61.0 °F 78% 29.77 in 10.0 mi SSW 13.8 mph 27.6 mph N/A   Overcast
2:37 AM 68.0 °F 60.8 °F 78% 29.80 in 10.0 mi SSW 16.1 mph 32.2 mph 0.00 in   Overcast
2:53 AM 68.0 °F 61.0 °F 78% 29.75 in 10.0 mi SW 9.2 mph - 0.00 in   Overcast
3:49 AM 66.2 °F 60.8 °F 83% 29.79 in 10.0 mi SSW 11.5 mph 16.1 mph N/A   Overcast
3:53 AM 66.9 °F 60.1 °F 79% 29.73 in 10.0 mi SSW 9.2 mph 16.1 mph N/A   Overcast
4:45 AM 66.2 °F 59.0 °F 78% 29.77 in 10.0 mi SSW 8.1 mph 17.3 mph N/A   Overcast
4:53 AM 66.9 °F 57.9 °F 73% 29.72 in 10.0 mi SSW 9.2 mph - N/A   Overcast
5:53 AM 66.9 °F 57.0 °F 70% 29.71 in 10.0 mi SSW 9.2 mph - N/A   Overcast
6:30 AM 66.2 °F 57.2 °F 73% 29.76 in 10.0 mi SSW 11.5 mph - N/A   Overcast
6:53 AM 66.0 °F 57.0 °F 73% 29.71 in 10.0 mi South 6.9 mph 16.1 mph N/A   Overcast
7:53 AM 66.0 °F 57.9 °F 75% 29.71 in 10.0 mi SSW 10.4 mph - N/A   Overcast
8:53 AM 64.9 °F 59.0 °F 81% 29.73 in 10.0 mi SSW 9.2 mph - N/A   Overcast
9:53 AM 64.9 °F 61.0 °F 87% 29.76 in 1.8 mi West 8.1 mph - 0.05 in Rain Heavy Rain
10:03 AM 64.4 °F 60.8 °F 88% 29.82 in 2.0 mi West 5.8 mph - 0.02 in Rain Rain
10:11 AM 64.4 °F 60.8 °F 88% 29.81 in 3.0 mi West 3.5 mph - 0.03 in Rain Light Rain
10:18 AM 64.4 °F 60.8 °F 88% 29.82 in 2.0 mi WSW 5.8 mph - 0.05 in Rain Rain
10:24 AM 64.4 °F 62.6 °F 94% 29.81 in 3.0 mi WSW 5.8 mph - 0.06 in Rain Rain
10:45 AM 64.4 °F 62.6 °F 94% 29.81 in 3.0 mi WSW 3.5 mph - 0.09 in Rain Rain
10:53 AM 64.0 °F 61.0 °F 90% 29.75 in 4.0 mi Calm Calm - 0.10 in Rain Light Rain
11:02 AM 64.4 °F 62.6 °F 94% 29.81 in 5.0 mi WSW 3.5 mph - 0.02 in Rain Light Rain
11:07 AM 64.4 °F 62.6 °F 94% 29.80 in 6.0 mi WSW 3.5 mph - 0.02 in Rain Light Rain
11:21 AM 64.4 °F 62.6 °F 94% 29.80 in 7.0 mi Calm Calm - 0.02 in Rain Light Rain
11:32 AM 64.4 °F 62.6 °F 94% 29.79 in 6.0 mi Calm Calm - 0.03 in Rain Light Rain
11:53 AM 64.9 °F 63.0 °F 93% 29.73 in 7.0 mi Calm Calm - 0.03 in Rain Light Rain
12:10 PM 64.4 °F 62.6 °F 94% 29.79 in 10.0 mi South 5.8 mph - 0.00 in   Overcast
12:28 PM 62.6 °F 57.2 °F 82% 29.78 in 10.0 mi South 10.4 mph 19.6 mph 0.00 in   Overcast
12:35 PM 64.4 °F 57.2 °F 77% 29.77 in 10.0 mi SSW 6.9 mph - 0.00 in   Scattered Clouds
12:53 PM 66.0 °F 59.0 °F 78% 29.70 in 10.0 mi SSW 12.7 mph 18.4 mph 0.00 in   Scattered Clouds
1:53 PM 66.0 °F 59.0 °F 78% 29.68 in 10.0 mi SSW 12.7 mph 18.4 mph N/A   Partly Cloudy
2:53 PM 68.0 °F 59.0 °F 73% 29.66 in 10.0 mi SSW 11.5 mph 18.4 mph N/A   Partly Cloudy
3:21 PM 66.2 °F 57.2 °F 73% 29.71 in 10.0 mi South 10.4 mph 16.1 mph N/A   Mostly Cloudy
3:40 PM 68.0 °F 57.2 °F 68% 29.70 in 10.0 mi SSW 12.7 mph - N/A   Scattered Clouds
3:53 PM 66.9 °F 57.9 °F 73% 29.64 in 10.0 mi South 8.1 mph - N/A   Partly Cloudy
4:53 PM 66.9 °F 57.0 °F 70% 29.63 in 10.0 mi SSW 6.9 mph - N/A   Clear
5:53 PM 64.9 °F 57.9 °F 78% 29.65 in 10.0 mi South 9.2 mph - N/A   Scattered Clouds
6:04 PM 64.4 °F 57.2 °F 77% 29.71 in 10.0 mi South 8.1 mph - N/A   Mostly Cloudy
6:38 PM 62.6 °F 57.2 °F 82% 29.71 in 10.0 mi SSW 5.8 mph - N/A   Overcast
6:53 PM 62.1 °F 57.0 °F 84% 29.66 in 10.0 mi SSW 6.9 mph - N/A   Overcast
7:20 PM 60.8 °F 57.2 °F 88% 29.71 in 10.0 mi SSW 3.5 mph - N/A   Scattered Clouds
7:53 PM 60.1 °F 57.0 °F 90% 29.68 in 10.0 mi South 3.5 mph - N/A   Clear
8:53 PM 59.0 °F 57.0 °F 93% 29.69 in 10.0 mi South 3.5 mph - N/A   Partly Cloudy
9:36 PM 57.2 °F 57.2 °F 100% 29.74 in 8.0 mi South 5.8 mph - N/A   Scattered Clouds
9:53 PM 59.0 °F 57.0 °F 93% 29.70 in 8.0 mi South 6.9 mph - N/A   Mostly Cloudy
10:43 PM 59.0 °F 57.2 °F 94% 29.75 in 1.8 mi WSW 4.6 mph - N/A   Overcast
10:53 PM 57.9 °F 57.9 °F 100% 29.70 in 0.8 mi WSW 5.8 mph - N/A   Mist
11:12 PM 57.2 °F 57.2 °F 100% 29.75 in 0.2 mi West 4.6 mph - N/A Fog Fog
11:53 PM 57.0 °F 57.0 °F 100% 29.70 in 0.2 mi Calm Calm - N/A Fog Fog